RH
93 82 91 82 88 58 46 46 49 60 62 66 59 67 72 64 72 70 66 67 68 76 72 70 72 80 96 100 86 65 86 90 65 56 86 89 74 64 69 62 56 60 53 48 44 44 46
97 87 95 86 83 82 58 50 49 67 62 65 69 73 71 64 62 62 63 61 64 75 71 64 68 84 96 97 70 55 71 84 96 84 74 76 70 59 57 57 59 53 50 48 48 44 42
97 94 77 79 75 85 56 48 46 58 73 65 78 90 89 82 74 63 63 60 58 71 78 73 74 87 99 80 62 59 57 58 85 91 70 70 68 58 53 58 52 50 54 51 43 39 42
96 99 88 75 60 82 63 48 42 48 80 84 71 86 91 94 93 83 71 74 66 57 69 76 80 83 98 82 58 66 78 58 66 85 70 76 70 62 58 50 47 50 45 59 44 36 34
97 96 97 77 73 70 83 77 44 45 55 70 64 72 83 93 97 98 84 78 83 72 61 81 92 94 88 77 65 60 72 79 82 82 79 81 74 70 58 60 53 46 57 56 48 35 37
97 93 95 92 68 72 71 77 47 48 50 56 79 71 82 93 98 99 94 88 88 85 82 88 96 97 78 87 71 58 51 88 94 82 96 99 81 79 79 79 87 65 55 52 54 37 38
93 98 94 96 77 77 48 63 46 47 52 54 61 81 95 98 90 96 99 100 95 86 90 90 82 83 78 72 75 64 50 81 95 78 93 94 92 95 82 70 61 59 52 61 45 36 36
96 97 98 97 96 59 48 42 44 44 49 51 57 82 97 100 99 99 99 99 72 68 94 74 91 90 66 86 88 67 58 84 89 75 78 94 90 69 72 70 62 48 50 52 50 39 38
97 97 97 97 97 88 56 45 43 43 48 52 56 74 98 100 99 100 98 87 74 76 85 94 79 89 89 77 82 78 65 76 84 63 83 78 82 62 68 67 63 53 57 56 58 46 41
95 95 95 96 94 97 89 57 46 44 48 54 59 62 99 100 99 98 100 98 90 78 100 96 87 77 79 83 82 68 65 68 76 67 74 86 75 75 69 80 69 88 51 45 45 49 59
91 90 90 90 91 94 98 87 55 48 48 55 63 65 92 100 90 99 97 99 93 99 96 77 82 65 63 84 71 83 44 62 87 74 75 86 88 91 79 70 69 72 46 48 44 50 48
86 86 88 90 90 93 94 98 70 58 48 51 57 62 85 99 88 98 96 99 98 100 95 93 79 79 83 74 72 77 76 70 66 69 64 67 64 74 80 68 58 50 48 44 52 53 67
89 85 88 89 90 89 90 95 99 84 58 59 60 63 70 82 98 92 98 100 99 99 86 93 84 75 75 83 80 78 81 89 83 91 88 66 82 58 57 55 45 49 49 77 65 70 72
88 87 89 88 89 88 91 92 100 100 66 64 62 60 66 85 100 85 95 94 100 98 84 71 80 72 84 71 80 75 88 94 86 60 71 86 95 57 39 60 69 58 55 69 71 74 63
85 88 90 94 90 90 93 91 98 100 84 70 55 52 82 82 100 91 94 100 99 78 76 80 76 78 90 72 87 87 86 88 75 57 65 81 77 37 33 35 54 56 54 46 61 60 72
84 90 93 99 99 90 92 94 96 100 89 58 60 71 89 88 100 97 96 99 95 69 71 67 81 78 97 81 92 93 91 73 73 56 47 56 57 43 34 28 30 43 42 53 63 66 70
86 89 92 98 99 94 94 97 96 100 72 56 85 83 98 100 100 99 99 95 85 65 64 67 80 86 77 84 89 91 88 76 58 54 45 46 50 54 39 44 43 39 45 52 55 63 64
89 89 95 98 98 98 95 98 95 100 69 58 80 88 100 99 99 94 94 94 66 72 79 75 64 64 70 77 78 88 88 69 52 62 63 50 60 60 49 45 40 36 41 45 62 57 63
90 89 95 98 100 99 99 99 97 100 79 52 76 100 100 100 99 99 95 86 73 79 84 82 67 60 54 66 81 78 88 65 60 60 64 59 65 82 68 55 54 47 44 43 52 56 64
90 88 94 98 100 100 100 99 98 100 89 50 82 89 100 100 100 88 94 88 92 94 93 72 64 61 57 68 71 85 87 62 59 57 52 46 63 62 72 54 60 62 52 48 46 62 60
92 87 96 97 100 100 100 98 95 97 91 54 76 66 71 94 91 75 72 89 95 93 81 63 66 57 63 76 77 84 69 64 53 54 52 50 56 50 47 54 55 55 55 54 51 46 53
92 83 94 97 99 99 100 95 93 95 84 55 67 68 69 72 58 60 64 80 75 64 68 67 78 67 57 65 62 81 69 65 62 51 49 52 55 42 40 41 36 43 48 57 51 51 43
94 85 88 98 99 100 99 96 93 94 80 62 59 61 57 66 59 55 60 65 61 56 59 63 64 64 58 53 50 55 52 54 55 50 51 44 46 48 51 44 40 38 42 64 54 47 51
97 95 86 100 100 96 96 97 94 94 84 57 57 64 56 57 57 54 52 53 60 52 60 55 46 56 46 45 40 38 45 52 53 56 44 44 45 47 50 49 45 33 47 40 49 50 49
96 100 88 99 100 92 94 99 94 93 88 53 58 64 47 64 64 53 55 61 54 54 58 54 49 56 43 39 56 73 54 41 56 60 56 46 53 67 59 59 47 52 53 61 53 65 57
91 99 99 99 100 87 97 100 98 93 95 55 65 63 51 64 61 48 54 50 60 58 53 50 52 46 39 60 54 85 82 64 52 57 50 55 58 52 88 76 62 46 47 43 48 69 62
94 100 99 94 100 90 100 100 100 95 97 75 67 74 64 56 62 48 52 53 49 59 65 49 44 42 49 74 77 79 69 58 58 59 56 62 68 64 75 73 66 48 48 42 58 58 66
100 99 100 94 100 97 100 100 100 95 97 90 77 78 76 57 71 63 56 49 54 53 58 48 52 50 68 70 76 83 77 71 69 66 61 56 73 77 83 75 70 52 53 56 60 60 51
100 100 99 97 89 99 100 100 99 94 98 96 89 82 72 56 76 68 65 60 57 59 48 57 64 62 55 83 82 85 83 80 74 74 70 62 60 66 68 69 61 57 54 50 49 51 54
Wind_Speed
17 19 18 16 15 14 14 13 13 10 10 12 12 10 11 11 11 10 11 14 15 15 15 16 17 15 16 15 22 9 5 3 23 27 31 23 17 17 8 9 6 4 4 9 16 20 18
18 19 15 16 16 15 15 14 14 12 10 11 12 11 12 12 12 13 12 12 14 15 14 17 16 16 18 16 26 28 10 5 17 28 35 29 18 18 13 8 13 7 15 19 17 24 15
17 18 14 15 13 15 15 15 14 13 11 10 12 13 13 15 15 15 15 14 14 14 15 16 16 15 19 30 8 17 31 24 6 27 34 33 11 17 9 3 10 13 3 7 10 12 8
15 17 19 14 14 13 14 15 14 15 13 12 16 15 14 14 16 17 17 15 14 14 13 16 15 16 14 9 28 16 9 16 14 26 33 32 22 14 7 6 6 6 2 4 4 2 4
13 16 19 17 15 14 14 18 15 15 17 16 16 17 19 17 15 17 17 15 15 14 13 12 12 14 9 10 24 27 13 6 8 21 23 24 28 9 11 5 4 3 4 6 7 5 3
14 14 17 18 18 16 13 17 16 15 16 17 16 18 19 17 17 15 18 17 12 13 11 9 10 3 19 14 20 19 24 9 8 20 14 16 16 5 4 5 7 6 4 3 5 3 2
14 15 15 18 18 16 15 14 16 15 14 18 18 19 18 17 20 19 17 15 9 5 19 13 13 10 6 13 7 11 24 19 8 21 12 16 9 12 13 13 4 6 4 7 4 4 2
13 16 15 16 17 16 15 14 16 15 14 17 17 19 19 9 12 11 24 27 23 6 6 29 11 16 24 6 7 14 25 15 9 9 15 8 16 14 7 7 4 3 3 5 6 1 3
14 14 15 15 17 17 15 14 16 14 15 13 15 19 16 11 11 13 29 31 16 9 2 9 28 11 12 20 12 22 30 15 5 13 20 11 4 15 13 6 10 3 5 4 5 7 4
15 14 17 16 16 17 16 14 16 13 14 11 16 19 12 9 7 14 28 23 21 19 4 7 11 10 14 8 6 21 30 17 5 17 20 6 5 13 16 11 6 9 6 3 3 4 3
15 14 17 18 17 17 18 15 17 14 14 13 13 15 12 8 9 9 16 23 20 16 1 11 9 5 20 10 8 23 33 24 9 9 9 7 14 11 15 17 9 4 5 6 2 3 3
17 16 16 20 17 18 18 16 16 16 14 16 15 14 13 11 7 9 6 24 21 3 5 9 11 10 11 15 7 20 19 12 10 8 3 3 9 10 7 4 11 6 5 2 3 2 2
18 17 18 18 19 18 18 17 16 18 15 17 16 16 16 10 12 9 17 18 3 4 3 7 7 10 13 7 10 10 16 15 9 12 14 1 4 3 8 6 3 4 7 2 1 1 6
18 17 19 20 20 19 19 18 19 18 16 17 18 18 19 14 17 20 21 2 6 3 8 6 7 12 7 9 8 12 13 11 12 1 13 7 5 8 6 6 6 7 8 5 6 4 4
19 20 21 22 20 18 20 19 19 17 16 16 18 22 14 14 22 23 16 3 4 5 7 11 11 8 4 10 2 10 17 11 13 11 10 8 5 2 5 5 11 6 8 4 5 1 1
20 21 22 23 21 17 18 18 18 17 15 15 16 5 3 5 27 28 4 4 7 6 12 15 7 5 9 15 8 5 8 9 11 11 7 7 5 0 2 7 3 7 8 2 2 3 4
20 22 22 22 20 17 17 18 16 15 13 11 3 2 5 11 30 17 3 6 4 18 14 7 6 6 7 8 5 4 8 3 10 9 4 6 4 2 6 6 8 2 4 4 4 3 4
21 22 22 21 20 17 17 17 14 13 10 5 3 1 8 24 5 3 6 5 7 11 3 2 4 6 8 8 5 6 8 6 15 9 8 4 6 6 3 1 5 4 7 6 5 4 1
21 22 22 20 19 18 16 15 11 11 8 6 3 4 14 18 3 2 2 2 3 3 1 3 3 4 9 6 6 4 5 3 11 7 9 8 2 5 2 1 2 4 4 4 5 3 6
23 22 23 20 19 18 14 13 10 8 8 5 4 2 5 14 7 2 3 4 3 2 3 4 5 7 10 4 2 6 6 1 4 4 7 8 3 6 9 4 6 5 5 5 6 4 5
22 22 23 19 19 18 15 12 9 9 6 5 5 4 5 4 5 5 4 6 3 5 8 3 3 14 7 5 4 5 3 4 4 8 4 4 4 3 3 4 4 6 9 11 9 9 7
22 23 24 19 19 18 15 12 10 9 5 8 4 4 4 1 0 5 4 5 4 3 4 1 7 4 4 4 4 8 8 4 5 3 3 3 2 3 2 3 3 2 4 8 4 4 2
23 23 24 19 19 18 14 13 11 10 6 6 7 6 3 0 2 3 3 5 5 5 4 5 7 6 9 1 2 11 11 12 8 7 3 5 5 3 3 2 2 4 8 8 5 4 7
23 23 25 20 19 16 12 12 11 11 9 9 8 5 4 2 2 2 2 2 5 3 4 4 11 4 8 26 24 22 24 20 14 7 3 5 5 3 3 1 1 3 1 6 7 2 5
23 23 23 20 19 16 13 13 11 11 9 8 9 7 5 2 1 2 4 5 7 13 5 4 2 4 22 5 4 5 4 3 5 6 6 3 5 3 5 4 3 0 4 7 6 3 1
25 22 23 20 19 16 14 14 12 12 10 8 6 7 3 5 4 5 4 3 4 4 3 2 6 15 7 3 4 3 3 3 3 2 4 5 6 4 2 4 7 1 2 8 4 2 7
25 22 25 20 18 16 15 14 12 13 11 9 7 6 3 6 3 4 3 5 7 4 4 3 6 3 0 2 3 3 4 1 4 7 5 3 3 4 2 2 5 3 4 5 5 3 10
25 25 25 20 18 17 16 14 13 13 12 10 8 6 4 5 6 4 4 5 6 4 4 9 6 1 2 3 3 3 3 4 3 3 5 6 6 4 3 2 6 4 4 6 5 14 16
23 26 22 20 19 19 17 15 15 14 12 10 8 7 7 4 6 11 10 8 6 5 8 10 1 4 6 4 1 3 2 2 3 3 3 1 4 4 6 4 0 2 3 19 18 19 12
Wind_Direction
316 325 322 320 312 311 305 300 306 306 307 306 295 290 288 279 268 260 258 256 254 244 242 241 240 227 213 214 226 237 5 221 207 205 208 192 184 189 182 179 166 200 259 262 269 280 281
317 325 310 312 302 302 303 299 298 296 296 300 300 286 286 281 270 263 261 260 251 237 233 240 236 219 216 240 247 231 252 20 210 202 205 196 197 189 185 190 186 205 226 261 279 279 279
317 324 314 308 300 294 301 297 292 286 290 294 292 294 286 272 269 266 258 254 250 241 234 230 231 222 222 232 249 231 239 242 244 209 204 200 176 188 175 149 212 223 295 302 271 274 260
312 323 326 318 315 297 303 301 292 283 277 286 282 286 289 280 277 268 257 253 247 243 239 228 224 227 239 264 240 238 226 234 249 213 206 203 194 198 207 180 100 141 135 271 281 302 283
308 315 319 328 317 304 300 302 294 284 278 272 281 286 288 279 287 265 251 246 240 235 231 230 220 222 267 257 247 239 222 196 231 202 205 201 204 205 198 137 155 166 204 212 304 210 232
300 305 311 318 319 308 292 288 291 284 287 284 282 293 286 269 274 264 231 234 228 220 211 212 209 203 243 227 241 233 212 190 178 185 204 207 193 180 171 169 192 169 204 218 233 257 211
293 300 304 310 315 305 303 293 290 287 288 287 283 294 296 271 258 262 220 185 157 204 199 194 192 207 258 234 254 217 199 193 176 169 195 190 191 191 185 192 166 153 185 215 255 258 268
303 304 307 307 313 311 309 301 291 289 288 290 291 293 296 278 253 247 203 191 190 176 186 217 217 234 237 155 195 202 189 173 177 179 203 188 206 197 144 157 173 145 188 251 283 215 189
301 309 314 313 311 314 313 306 298 294 291 295 293 292 291 288 261 222 208 206 194 192 337 215 213 243 254 230 234 187 180 183 132 173 203 198 168 186 167 158 175 193 192 251 239 334 317
293 305 310 314 312 311 315 309 301 298 293 290 294 305 295 292 236 229 206 211 210 218 245 184 195 249 202 195 248 192 182 172 168 192 195 226 155 184 173 179 158 222 197 210 283 21 260
290 299 302 308 311 313 309 315 303 299 295 288 289 299 301 233 262 221 227 202 192 189 201 153 177 201 176 195 154 176 181 206 164 171 171 179 173 182 175 196 167 217 149 193 222 210 355
286 290 295 299 305 307 309 312 309 302 294 290 289 295 285 265 237 279 192 155 170 219 229 181 162 176 147 204 201 155 182 198 179 149 64 202 158 162 161 169 177 154 81 57 54 83 292
281 286 292 294 300 301 305 304 310 305 300 292 290 288 268 254 206 186 146 140 129 234 155 155 166 158 166 162 179 158 181 200 165 157 184 193 158 159 147 133 69 107 119 284 277 282 229
279 285 288 291 293 298 299 303 304 307 303 297 294 284 274 254 217 171 157 100 226 140 199 144 132 143 167 156 195 166 186 200 233 192 156 159 172 179 173 178 150 184 173 163 199 203 260
278 284 292 290 287 290 293 298 300 307 308 304 298 294 262 220 195 166 154 200 243 184 185 148 127 145 191 181 245 171 206 204 196 189 163 162 184 151 156 121 140 198 202 190 102 13 49
278 286 294 289 285 285 288 296 297 308 314 312 304 268 264 188 187 154 158 254 230 125 117 145 141 182 184 168 181 165 169 184 165 202 155 190 106 132 138 102 82 175 160 111 9 229 249
276 286 294 291 285 283 288 295 294 310 318 323 291 239 335 172 174 174 227 228 260 142 141 162 119 159 180 155 167 125 163 218 190 178 128 136 107 181 137 179 162 161 163 58 123 138 176
275 286 295 289 283 279 282 289 290 308 323 319 242 65 151 151 191 187 229 254 171 145 138 131 97 125 148 136 144 154 185 228 177 145 144 179 123 147 158 260 179 163 168 154 147 214 133
273 281 295 286 283 279 278 284 282 299 321 322 195 116 172 178 247 196 278 151 108 163 19 144 134 154 140 152 123 140 256 292 158 136 164 174 123 106 90 79 335 192 177 127 116 99 187
268 275 291 283 283 282 277 276 274 284 308 306 196 130 169 219 268 260 161 172 210 255 273 211 163 145 146 138 20 137 166 199 143 118 145 115 143 152 189 182 141 176 179 169 144 153 175
260 270 285 280 281 280 271 268 260 270 288 270 211 211 199 201 238 226 187 171 210 179 220 172 123 157 162 130 94 122 128 107 60 136 88 136 135 123 45 133 136 179 180 181 194 200 188
261 266 281 278 275 276 266 261 248 261 268 231 232 177 197 260 255 157 191 204 198 127 29 86 115 121 97 130 161 172 142 140 174 162 148 103 158 114 76 65 110 188 187 182 193 163 209
255 260 274 277 273 272 259 248 238 246 249 232 223 219 201 172 108 176 213 169 173 139 21 38 126 102 70 223 134 110 101 90 126 135 124 145 134 120 176 124 119 294 215 184 179 181 153
246 255 269 274 271 267 246 240 229 233 236 240 236 206 164 229 146 215 178 90 128 60 118 350 67 69 147 120 99 87 81 76 65 45 70 129 101 78 127 100 189 237 312 170 126 94 132
236 250 265 272 266 259 239 235 226 227 231 231 229 214 192 133 159 82 97 102 87 85 46 60 18 124 158 86 70 64 27 72 32 30 19 43 125 109 144 193 290 159 180 151 154 202 188
231 244 262 270 263 248 236 231 224 219 225 218 226 213 198 130 234 137 124 153 140 121 101 87 102 143 148 80 62 114 191 178 176 61 15 49 70 105 102 147 208 226 139 139 130 241 182
230 239 255 264 258 238 228 227 221 212 219 216 220 209 173 112 137 144 144 161 136 97 99 134 136 155 278 92 100 152 198 155 165 168 173 74 39 126 124 234 287 234 156 148 126 212 147
223 234 249 258 249 227 224 217 213 209 209 208 212 200 179 103 119 135 130 139 135 144 143 159 115 245 53 85 132 182 128 200 108 152 180 158 136 168 120 162 264 164 86 162 151 132 140
216 232 242 252 240 219 220 211 212 201 199 203 205 188 152 119 119 116 109 110 125 122 137 162 118 155 162 93 83 113 116 121 150 209 19 197 165 180 174 213 170 145 146 135 141 148 162